Other Public Products
Issued by NWS Grand Forks, ND

Home | Current Version | Previous Version | Graphics & Text | Print | Product List | Glossary On
Versions: 1 2 3 4 5 6 7 8 9 10 11 12 13 14 15 16 17 18 19 20 21 22 23 24 25 26 27 28 29 30 31 32 33 34 35 36 37 38 39 40 41 42 43 44 45 46 47 48 49 50
000
FPUS83 KFGF 021831
OPUFGF
PRAIRIE TO PINES WEATHER ROUNDUP
NATIONAL WEATHER SERVICE EASTERN NORTH DAKOTA/GRAND FORKS ND
100 PM CDT WED SEP 02 2015

 **SATELLITE DATA USED TO AUGMENT SKY COVER AT AUTOMATED STATIONS**
 *****  WEATHER ACROSS EASTERN NORTH DAKOTA  *****

CITY           SKY/WX    TMP DP  RH WIND       PRES   REMARKS
GRAND FORKS    FAIR      84  67  56 SE15      29.81S
6HR MIN TEMP:  66; 6HR MAX TEMP:  84;

GRAND FORKS AF FAIR      83  68  60 S12       29.82S
GRAND CITY NWS   N/A     82 N/A N/A SE7         N/A
BUXTON         NOT AVBL
DEVILS LAKE    FAIR      84  66  54 SE14      29.78F
6HR MIN TEMP:  66; 6HR MAX TEMP:  82;

FARGO          FAIR      86  67  52 S10       29.82S
6HR MIN TEMP:  68; 6HR MAX TEMP:  86;

WAHPETON ARPT  FAIR      84  64  51 SE15      29.83F
$$

 *****  WEATHER ACROSS CENTRAL AND WESTERN NORTH DAKOTA  *****

CITY           SKY/WX    TMP DP  RH WIND       PRES   REMARKS
JAMESTOWN      FAIR      84  69  60 SE10      29.80F
6HR MIN TEMP:  63; 6HR MAX TEMP:  84;

BISMARCK       SUNNY     82  69  64 VRB5      29.77F
6HR MIN TEMP:  61; 6HR MAX TEMP:  82;

MINOT          FAIR      87  65  47 SE10      29.75F
6HR MIN TEMP:  59; 6HR MAX TEMP:  87;

MINOT AFB      FAIR      89  67  47 SE13      29.74F HX  92
6HR MIN TEMP:  55; 6HR MAX TEMP:  89;

GARRISON         N/A     86  66  51 SE9       29.76F
6HR MIN TEMP:  57; 6HR MAX TEMP:  86;

WILLISTON      SUNNY     92  54  27 SE16G22   29.71F HX  90
6HR MIN TEMP:  55; 6HR MAX TEMP:  92;

DICKINSON      SUNNY     90  49  24 SE15G21   29.77F
6HR MIN TEMP:  55; 6HR MAX TEMP:  92; 6HR PCP: TRACE;

HETTINGER      SUNNY     90  52  27 SE13G18   29.81F
6HR MIN TEMP:  47; 6HR MAX TEMP:  90;

$$

 *****  OTHER OBSERVATIONS NORTHEAST NORTH DAKOTA  *****

CITY           SKY/WX    TMP DP  RH WIND       PRES   REMARKS
WALHALLA       FAIR      84  72  65 MISG      29.79S
LANGDON        FAIR      90  63  40 S14G20    29.81S HX  90
CAVALIER       FAIR      82  72  69 S14G20    29.80S
GRAFTON        FAIR      84  70  61 SE13      29.82S
CANDO          FAIR      84  68  58 S10G17    29.78F
FORT TOTTEN    NOT AVBL
ROLLA            N/A     86  64  48 S10G18    29.80S
RUGBY          FAIR      86  66  51 SE14G21   29.76F
 ***** THE ABOVE OBSERVATIONS ARE NON NWS ARE NOT QUALITY
        CONTROLLED AND MAY MIS-REPORT RAIN FOR SNOW...
$$

 *****  OTHER OBSERVATIONS SOUTHEAST NORTH DAKOTA *****

CITY           SKY/WX    TMP DP  RH WIND       PRES   REMARKS
COOPERSTOWN    NOT AVBL
VALLEY CITY    FAIR      82  72  69 SE12      29.82S
OAKES            N/A     84  79  84 E8        29.80S HX  96
GWINNER        FAIR      86  70  58 SE15      29.81S HX  90
SHEYENNE NWR     N/A     83  70  63 SE12      29.95S
BUFFALO        NOT AVBL
WYNDMERE         N/A     84  70  61 SE12        N/A
 ***** THE ABOVE OBSERVATIONS ARE NON NWS ARE NOT QUALITY
       CONTROLLED AND MAY MIS-REPORT RAIN FOR SNOW...
$$

  *****  WEATHER ACROSS NORTHERN MINNESOTA  *****

CITY           SKY/WX    TMP DP  RH WIND       PRES   REMARKS
FLAG ISLAND    FAIR      75  66  73 SE8       29.86F
WARROAD        FAIR      84  72  65 S9        29.87S
ROSEAU         FAIR      84  70  61 S13G18    29.85F
HALLOCK        FAIR      86  68  54 S16       29.81S
THF RVR FALLS  FAIR      84  64  51 SE16      29.85S
6HR MIN TEMP:  61; 6HR MAX TEMP:  84;

HALSTAD        NOT AVBL
FOSSTON        FAIR      86  61  42 SE13G20   29.87F
BAUDETTE       FAIR      83  69  62 S13       29.88F
6HR MIN TEMP:  60; 6HR MAX TEMP:  84;

WASKISH        FAIR      82  72  69 SE8G16    29.90S
CROOKSTON      FAIR      84  66  54 S13       29.84S
$$
  *****  WEATHER ACROSS CENTRAL AND WEST MINNESOTA  *****

CITY           SKY/WX    TMP DP  RH WIND       PRES   REMARKS
BEMIDJI        FAIR      82  63  51 SE18      29.90F
PARK RAPIDS    FAIR      82  61  48 E14       29.91S
6HR MIN TEMP:  68; 6HR MAX TEMP:  83;

WADENA         FAIR      81  64  57 SE15      29.90R
DETROIT LAKES  FAIR      82  63  51 SE17      29.88F
MOORHEAD       FAIR      84  66  54 S14       29.84S
FERGUS FALLS   FAIR      82  66  57 SE12      29.84S
ELBOW LAKE     FAIR      81  69  67 SE10G17   29.86S
6HR MIN TEMP:  64; 6HR MAX TEMP:  81;

MORRIS MN      FAIR      82  72  69 E10G18    29.85S
STAPLES        FAIR      81  63  54 E13       29.90F
WHEATON        FAIR      81  70  69 E15       29.84F
$$
  *****  WEATHER ELSEWHERE ACROSS MINNESOTA  *****

CITY           SKY/WX    TMP DP  RH WIND       PRES   REMARKS
DULUTH         PTSUNNY   66  64  93 S14       29.94F FOG
6HR MIN TEMP:  64; 6HR MAX TEMP:  72; 6HR PCP:  1.83;

INTRNTL FALLS  PTSUNNY   78  65  63 VRB5      29.93F
6HR MIN TEMP:  60; 6HR MAX TEMP:  78; 6HR PCP: TRACE;

ELY            FAIR      70  63  78 CALM      29.98F
CLOQUET        FAIR      72  63  73 SE9G21    29.93F
BRAINERD       PTSUNNY   77  66  68 E9        29.93S
6HR MIN TEMP:  69; 6HR MAX TEMP:  79;

HIBBING        FAIR      77  63  61 SE6       29.95F
6HR MIN TEMP:  64; 6HR MAX TEMP:  77; 6HR PCP:  1.02;

ALEXANDRIA     FAIR      80  68  66 E13       29.90S
6HR MIN TEMP:  65; 6HR MAX TEMP:  80;

SAINT CLOUD    CLOUDY    76  69  79 E8        29.90S HAZE
6HR MIN TEMP:  66; 6HR MAX TEMP:  76;

MINNEAPOLIS    CLOUDY    76  67  73 E9        29.90F
6HR MIN TEMP:  70; 6HR MAX TEMP:  76;

$$

  *****  WEATHER ACROSS SOUTH DAKOTA  *****

CITY           SKY/WX    TMP DP  RH WIND       PRES   REMARKS
SIOUX FALLS    FAIR      83  73  72 S12       29.84F
6HR MIN TEMP:  67; 6HR MAX TEMP:  83;

BROOKINGS      FAIR      82  72  69 SE13      29.85F
WATERTOWN      FAIR      85  71  63 SE7       29.83S HX  90
6HR MIN TEMP:  66; 6HR MAX TEMP:  85;

HURON          MOSUNNY   84  71  65 SE8       29.77F
6HR MIN TEMP:  67; 6HR MAX TEMP:  84;

SISSETON         N/A     84  69  60 SE14      29.81S
ABERDEEN       MOSUNNY   84  70  62 SE6       29.78F
6HR MIN TEMP:  59; 6HR MAX TEMP:  84;

MITCHELL       PTSUNNY   84  71  65 S9        29.79F
PIERRE         PTSUNNY   80  67  64 CALM      29.77S
6HR MIN TEMP:  59; 6HR MAX TEMP:  80;

MOBRIDGE       SUNNY     82  72  71 VRB5      29.76S
RAPID CITY     SUNNY     88  53  30 SE8       29.84F
6HR MIN TEMP:  56; 6HR MAX TEMP:  88;

$$

  *****  SOME WEATHER IN NEARBY STATES *****

CITY           SKY/WX    TMP DP  RH WIND       PRES   REMARKS
GLASGOW MT     PTSUNNY   85  42  22 S8        29.66F
6HR MIN TEMP:  60; 6HR MAX TEMP:  85;

GREAT FALLS MT CLOUDY    76  34  21 W10       29.72R
6HR MIN TEMP:  49; 6HR MAX TEMP:  76;

CHEYENNE WY    SUNNY     83  37  19 NW10G21   30.13F
6HR MIN TEMP:  65; 6HR MAX TEMP:  85;

SCOTTSBLUFF NE SUNNY     88  50  27 W8        29.97F
6HR MIN TEMP:  54; 6HR MAX TEMP:  88;

OMAHA NE       FAIR      84  70  62 S21       29.91F
6HR MIN TEMP:  73; 6HR MAX TEMP:  85;

DES MOINES IA  FAIR      85  69  58 SW17G26   29.93F
6HR MIN TEMP:  71; 6HR MAX TEMP:  85; 6HR PCP: TRACE;

DAVENPORT IA   FAIR      83  69  62 SW10      30.02F
6HR MIN TEMP:  71; 6HR MAX TEMP:  83;

CHICAGO IL     FAIR      87  69  54 SW13      30.01F HX  91
6HR MIN TEMP:  72; 6HR MAX TEMP:  88;

EAU CLAIRE WI  CLOUDY    71  68  90 NE8       29.96R
6HR MIN TEMP:  69; 6HR MAX TEMP:  73; 6HR PCP:  0.21;

LA CROSSE WI   FAIR      85  68  56 S10       29.93F
6HR MIN TEMP:  73; 6HR MAX TEMP:  85;

$$

  *****  SOME NATIONAL WEATHER *****

CITY           SKY/WX    TMP DP  RH WIND       PRES   REMARKS


USA.gov is the U.S. government's official web portal to all federal, state and local government web resources and services.